Time,TemperatureF,DewpointF,PressureIn,WindDirection,WindDirectionDegrees,WindSpeedMPH,WindSpeedGustMPH,Humidity,HourlyPrecipIn,Conditions,Clouds,dailyrainin,SolarRadiationWatts/m^2,SoftwareType,DateUTC
2013-05-19 00:00:00,72.1,63.4,29.72,SSE,161,9.0,9.0,74,0.00,,,0.00,0,Wunderground v.1.15,2013-05-19 05:00:00,
2013-05-19 00:10:00,72.1,63.4,29.73,SSE,163,9.0,9.0,74,0.00,,,0.00,0,Wunderground v.1.15,2013-05-19 05:10:00,
2013-05-19 00:20:00,72.0,63.3,29.74,South,190,9.0,9.0,74,0.00,,,0.00,0,Wunderground v.1.15,2013-05-19 05:20:00,
2013-05-19 00:30:00,72.0,63.6,29.73,SSE,148,10.0,17.0,75,0.00,,,0.00,0,Wunderground v.1.15,2013-05-19 05:30:00,
2013-05-19 00:40:00,72.1,63.7,29.73,SSE,162,11.0,15.0,75,0.00,,,0.00,0,Wunderground v.1.15,2013-05-19 05:40:00,
2013-05-19 00:50:00,72.2,63.8,29.73,SSE,151,12.0,17.0,75,0.00,,,0.00,0,Wunderground v.1.15,2013-05-19 05:50:00,
2013-05-19 19:29:00,62.9,60.2,29.55,NE,55,6.0,7.0,91,0.00,,,0.62,0,Wunderground v.1.15,2013-05-20 00:29:00,
2013-05-19 19:39:00,62.9,59.6,29.52,NNE,13,6.0,6.0,89,0.00,,,0.63,5,Wunderground v.1.15,2013-05-20 00:39:00,
2013-05-19 19:50:00,62.8,59.2,29.52,ENE,60,2.0,11.0,88,0.00,,,0.63,5,Wunderground v.1.15,2013-05-20 00:50:00,
2013-05-19 20:00:00,62.8,58.9,29.52,East,90,2.0,8.0,87,0.00,,,0.63,21,Wunderground v.1.15,2013-05-20 01:00:00,
2013-05-19 20:10:00,63.4,59.1,29.54,ESE,113,3.0,5.0,86,0.00,,,0.63,14,Wunderground v.1.15,2013-05-20 01:10:00,
2013-05-19 20:19:00,63.1,58.8,29.52,ENE,66,3.0,3.0,86,0.00,,,0.63,5,Wunderground v.1.15,2013-05-20 01:19:00,
2013-05-19 20:29:00,63.3,58.7,29.51,ENE,67,3.0,3.0,85,0.00,,,0.63,0,Wunderground v.1.15,2013-05-20 01:29:00,
2013-05-19 20:40:00,63.4,59.1,29.52,East,90,3.0,3.0,86,0.00,,,0.63,0,Wunderground v.1.15,2013-05-20 01:40:00,
2013-05-19 20:50:00,63.5,59.2,29.52,SE,144,4.0,7.0,86,0.00,,,0.63,0,Wunderground v.1.15,2013-05-20 01:50:00,
2013-05-19 20:59:00,63.7,59.4,29.54,South,169,5.0,8.0,86,0.00,,,0.63,0,Wunderground v.1.15,2013-05-20 01:59:00,
2013-05-19 21:10:00,63.6,59.3,29.54,SSE,151,7.0,10.0,86,0.00,,,0.63,0,Wunderground v.1.15,2013-05-20 02:10:00,
2013-05-19 21:20:00,64.2,59.6,29.53,SE,133,8.0,8.0,85,0.00,,,0.63,0,Wunderground v.1.15,2013-05-20 02:20:00,
2013-05-19 21:29:00,64.3,59.4,29.53,SE,132,10.0,10.0,84,0.00,,,0.63,0,Wunderground v.1.15,2013-05-20 02:29:00,
2013-05-19 21:40:00,63.9,59.3,29.51,SSE,163,12.0,12.0,85,0.00,,,0.64,0,Wunderground v.1.15,2013-05-20 02:40:00,
2013-05-19 21:50:00,63.1,59.5,29.48,ESE,109,5.0,19.0,88,0.04,,,0.65,0,Wunderground v.1.15,2013-05-20 02:50:00,
2013-05-19 21:59:00,62.5,59.2,29.47,NE,38,5.0,5.0,89,0.04,,,0.65,0,Wunderground v.1.15,2013-05-20 02:59:00,
2013-05-19 22:10:00,62.5,59.8,29.50,SSW,209,2.0,2.0,91,0.00,,,0.65,0,Wunderground v.1.15,2013-05-20 03:10:00,
2013-05-19 22:20:00,62.8,59.8,29.53,WSW,247,5.0,6.0,90,0.00,,,0.65,0,Wunderground v.1.15,2013-05-20 03:20:00,
2013-05-19 22:30:00,62.4,59.1,29.57,SW,223,7.0,10.0,89,0.09,,,0.67,0,Wunderground v.1.15,2013-05-20 03:30:00,
2013-05-19 22:39:00,62.2,58.9,29.57,SW,214,7.0,7.0,89,0.05,,,0.68,0,Wunderground v.1.15,2013-05-20 03:39:00,
2013-05-19 22:49:00,62.1,59.1,29.58,SSE,161,6.0,6.0,90,0.11,,,0.70,0,Wunderground v.1.15,2013-05-20 03:49:00,
2013-05-19 23:00:00,61.8,58.8,29.58,South,169,5.0,5.0,90,0.06,,,0.71,0,Wunderground v.1.15,2013-05-20 04:00:00,